Location: Newark
(49.8348°N, 24.0280°E)
Time: 04:35:57
(UTC+00:00)

Transit 2A - Pass Details

Date: 23 January 2020
Orbit: 600 x 959 km, 66.7° (Epoch: 18 February)

Event Time Altitude Azimuth Distance (km) Brightness Sun altitude
Rises 00:49:16 0° 325° (NW) 2,893 - -49.8°
Reaches altitude 10° 00:52:30 10° 351° (N) 2,025 - -49.3°
Maximum altitude 00:55:00 14° 24° (NNE) 1,785 - -49.0°
Drops below altitude 10° 00:57:35 10° 58° (ENE) 2,110 - -48.7°
Exits shadow 01:00:24 - 79° (E) 2,886 9.6 -48.3°
Sets 01:01:04 0° 83° (E) 3,100 9.7 -48.2°
